Location: Eurasberg
(48.3353°N, 11.0839°E)
Time: 05:48:04
(UTC+00:00)

Cosmos 1470 Rocket - Pass Details

Date: 18 January 2026
Orbit: 597 x 626 km, 82.5° (Epoch: 10 February)

Event Time Altitude Azimuth Distance (km) Brightness Sun altitude
Rises 05:50:02 0° 189° (S) 2,838 7.1 -11.4°
Reaches altitude 10° 05:52:14 10° 190° (S) 1,937 6.2 -11.0°
Maximum altitude 05:56:31 85° 278° (W) 608 3.4 -10.3°
Drops below altitude 10° 06:00:50 10° 9° (N) 1,948 6.0 -9.7°
Sets 06:03:03 0° 10° (N) 2,855 6.9 -9.3°
